Showing default

GSAT 7A, 43864

Orbit data source: Space-Track

GSAT 7A, 43864 is a payload satellite owned by ISRO (IN) in GEO that was launched on Wed, 19 Dec 2018 UTC via a GSLV MK II launch vehicle from the Sirharikota (SRI). Payload-class satellites include a variety of spacecraft equipped with specific instruments for various scientific and technological missions. These include communications satellites like Starlink; space stations such as the ISS; scientific satellites like the Hubble; Earth observation satellites from companies like Planet Labs, Umbra, and HawkEye 360; GPS; miniature CubeSats for education and research; and military/defense satellites.

Not visible in the next 10 days
Identifier
43864, 2018-105A
Orbit
GEO
Last TLE update
16 hours ago
Origin
Manufacturer
ISRO
Mission
Operational Defense Communications
Bus & Motor
I2K, ISRO LAM
Mass
2,250 kg wet, ~1,000 kg dry
Launch date (UTC)
2018-12-19 (6 years ago)
Launch vehicle
GSLV MK II
Launch site
Sirharikota (SRI)
Object type
Payload
Rocket body
Debris
Shape & HBR
Box + 2 Pan, 9.5 m
Radar Cross Section
8.526 m², Small (<0.1 m²)

Expand to show TLE details & history

TLE from 16 hours ago
0 GSAT 7A
1 43864U 18105A   25129.10882514  .00000032  00000-0  00000-0 0  9993
2 43864   0.1003  89.6028 0002547 317.8718 281.6698  1.00272050 23391
Epoch: 2025-05-09T02:36Z
Definitive object data (Epoch: 2025-05-09T02:36:42.492Z)
Latitude
-0.06494°
Longitude
62.76523°
Altitude
35,783.832 km
Speed
3.075 km/s
True Right ascension
21h 56m 26s
True Declination
0° 03' 54"
Sunlit
Object was in daylight at TLE epoch
Visualization TLE readout
Latitude
0.06853°
Longitude
-56.08662°
Altitude
35,796.27 km
Speed
3.074 km/s
Apparent Right ascension
14h 06m 02s
Apparent Declination
-4° 53' 30"
Sunlit
Object is in daylight
Visualization observer readout
Local Sidereal Time
02:49:21
Azimuth
18.407° NNE
Elevation
-53.639°
Doppler factor
1
Orbital elements
Apogee altitude
35,798.331 km
Perigee altitude
35,776.851 km
Semi-major axis
42,165.728 km
Eccentricity
0.0002547
Inclination
0.1003°
RAAN
89.6028°
Arg. of periapsis
317.8718°
True anomaly
281.64121°
Mean anomaly
281.6698°
Eccentric anomaly
281.65551°
Mean motion
0.25067 °/min
BSTAR
Unknown
Orbital period
1436.15 mins
Loading historical data...
43864 neighbors
Loading maneuver chart data...
Loading SW <> Apogee altitude chart data...
Loading historical data...
Loading historical data...
Loading historical data...
Loading historical data...
Loading historical data...
Loading historical data...
Loading historical data...
Other satellites on launch #105 in the year 2018 (2018-12-19 UTC)

GSAT 7A Visibility forecast

Observer location: undefined°, undefined°

GSAT 7A is not visible in the next 10 days
Span
Click to sort rows by Start time (UTC) header in descending order
Start Az.
Max El. time (UTC)
Max El. Az.
Max El.
End time (UTC)
End Az.
|